RH
32 32 29 27 26 25 24 24 25 28 28 27 26 24 22 20 16 16 20 9 10 12 13 14 17 26 32 33 42 56 70 80 71 71 64 43 41 38 40 50 50 48 59 60 68
37 35 34 33 32 29 25 24 21 22 26 26 25 24 23 22 20 31 6 8 9 10 16 15 17 23 32 35 43 57 64 59 55 56 50 44 42 40 43 63 70 65 65 64 66
39 37 36 34 32 29 26 24 20 19 21 22 24 25 23 23 38 11 12 6 8 11 14 13 13 15 23 27 31 48 50 43 40 46 43 44 43 41 48 56 74 75 73 70 74
42 40 38 36 34 32 30 28 24 20 18 19 22 25 23 29 23 17 13 6 7 12 14 12 20 25 27 26 19 42 36 34 34 43 43 46 43 43 51 44 58 61 64 69 76
40 39 37 37 36 35 33 31 27 22 19 18 22 25 27 31 19 8 9 11 7 15 14 14 18 24 27 24 18 29 29 33 34 42 42 40 45 44 46 50 56 56 60 67 72
36 35 34 33 32 32 33 33 30 24 19 17 22 26 42 21 6 14 12 11 10 15 13 15 17 19 23 19 19 15 33 39 36 36 35 38 38 39 47 56 59 60 64 64 68
34 34 32 31 30 29 30 32 30 24 19 17 25 42 54 22 15 18 13 13 11 12 13 13 14 18 22 23 14 14 20 35 35 33 34 30 37 38 49 57 63 62 62 63 63
34 32 30 30 29 28 28 30 27 22 19 26 28 57 36 11 16 16 13 16 12 13 12 11 12 17 19 16 15 16 31 46 38 38 31 32 51 37 49 59 66 63 61 62 62
34 32 30 29 29 28 28 29 25 31 30 32 50 55 29 18 22 15 16 18 10 13 11 11 12 17 14 17 21 23 24 24 30 41 38 36 43 40 46 49 58 62 61 60 62
34 31 30 29 31 29 28 27 32 54 48 49 57 43 26 17 14 12 11 16 11 11 12 13 20 20 23 21 26 23 24 22 23 35 40 45 46 42 44 45 56 59 59 59 59
35 31 29 30 33 31 28 44 60 55 62 28 26 29 23 17 13 12 13 18 13 14 17 16 23 28 25 20 17 18 19 23 18 17 41 46 48 44 44 44 48 58 59 59 56
34 31 30 30 36 32 35 40 38 25 34 41 33 30 22 19 21 9 11 15 18 19 15 18 21 19 20 18 17 18 19 19 17 17 36 44 44 41 39 44 42 51 54 55 54
33 30 31 30 33 38 38 28 19 21 35 29 39 33 26 21 24 19 12 16 18 19 16 20 14 13 18 19 18 17 18 18 19 17 25 22 28 21 23 43 42 43 46 49 54
32 29 31 30 45 51 50 29 24 25 41 28 29 29 28 23 16 12 8 15 15 19 16 15 12 12 12 15 16 19 13 14 15 16 17 17 29 21 20 25 43 43 45 50 51
31 29 30 33 34 43 26 26 23 25 27 22 26 20 21 18 13 12 11 13 18 16 17 18 13 12 12 11 12 14 10 12 12 14 15 16 19 19 18 21 32 43 42 42 45
29 29 30 39 36 19 23 21 25 37 28 22 20 25 20 17 14 12 14 11 13 17 14 16 11 10 12 11 11 10 10 14 19 20 18 15 16 18 15 19 30 39 41 38 38
26 27 30 37 35 26 22 27 36 42 21 20 19 20 18 19 17 14 16 16 17 18 19 15 14 12 11 13 11 11 15 20 18 22 22 17 19 19 12 14 23 39 39 38 35
26 26 33 24 22 24 20 33 40 28 28 19 17 19 19 18 17 18 18 20 17 16 24 22 21 16 13 15 14 13 14 19 18 21 18 19 18 14 13 12 16 33 34 36 35
27 35 35 31 22 24 34 43 34 33 23 23 21 20 19 17 17 18 20 20 17 19 20 25 22 15 13 13 12 14 14 12 18 22 22 19 19 17 18 16 26 33 36 37 36
38 45 36 30 21 26 39 44 38 28 22 22 20 18 20 19 19 21 22 17 16 17 17 18 23 16 13 10 11 13 13 16 24 20 22 25 26 28 23 16 15 31 37 38 37
39 40 32 24 21 38 42 45 33 23 21 22 24 23 20 20 19 20 19 16 15 15 17 19 20 18 14 14 14 14 15 22 23 27 28 29 24 20 23 17 12 16 24 32 37
55 47 35 26 37 56 43 33 27 26 23 25 24 23 22 22 23 21 21 18 24 17 21 20 24 24 20 17 15 12 14 20 25 23 31 28 23 15 23 21 14 13 17 19 38
66 69 33 24 43 49 41 32 27 27 27 24 25 26 21 26 24 24 25 22 28 28 38 19 24 28 22 18 16 16 18 22 27 30 32 32 27 18 21 19 21 15 20 31 38
69 50 47 48 49 40 44 39 33 24 24 28 29 30 33 32 36 34 38 29 30 32 53 29 30 24 25 21 20 21 19 20 24 32 31 30 23 19 19 18 20 21 23 26 37
65 59 54 58 47 51 44 38 36 34 30 29 29 34 39 46 43 42 35 36 29 38 33 34 30 28 24 22 20 19 19 22 21 23 27 24 27 22 23 21 22 23 26 27 30
68 69 72 64 61 51 50 41 39 36 30 29 29 28 30 32 34 34 34 33 34 30 33 37 40 40 34 29 26 26 21 21 22 20 21 23 24 27 46 37 55 53 40 24 29
64 64 68 64 63 52 51 48 38 38 30 28 31 30 30 29 25 26 30 30 29 29 32 39 41 47 47 44 39 35 27 24 21 28 23 30 31 32 61 61 63 59 57 55 56
Wind_Speed
11 12 12 12 12 12 12 13 13 13 13 13 13 13 14 16 13 9 7 10 3 3 5 1 2 2 3 2 4 4 3 2 4 6 5 3 1 3 2 9 2 4 5 8 28
12 12 13 13 13 13 13 13 13 13 13 13 12 13 14 15 12 11 20 13 13 7 5 4 1 1 1 3 4 4 2 7 7 5 5 5 4 5 4 5 4 8 14 22 27
13 13 13 13 13 13 13 13 13 12 12 12 11 12 12 12 3 7 4 19 17 10 5 2 2 3 3 3 4 6 5 5 4 8 3 2 3 6 7 3 6 15 16 17 23
14 14 13 13 13 14 14 13 13 12 12 12 10 10 10 5 1 2 4 11 20 12 7 1 1 2 2 2 4 4 10 6 5 7 4 3 2 4 7 5 14 21 22 18 16
16 15 15 14 14 14 14 14 13 12 12 11 8 7 4 3 8 5 5 9 19 14 7 2 1 2 3 6 6 4 4 5 3 7 10 5 6 6 7 8 18 18 17 18 16
17 17 16 16 16 15 15 14 13 12 11 10 6 3 1 3 4 6 3 10 16 17 6 6 2 1 3 4 2 5 4 4 2 5 6 6 5 5 4 16 17 19 18 16 16
20 19 18 18 18 17 15 14 13 11 10 8 4 2 1 12 2 3 6 4 18 17 4 4 3 2 4 6 3 5 3 4 3 2 4 4 4 6 11 18 19 18 16 15 15
21 20 21 21 19 18 15 12 12 10 7 4 3 3 7 4 3 10 10 2 10 13 11 5 4 2 3 5 7 4 4 2 4 4 3 4 9 3 15 18 16 16 14 14 15
22 22 23 22 20 17 12 10 7 1 1 7 4 2 9 7 8 18 12 4 5 10 5 4 2 1 5 3 5 6 2 4 7 8 4 5 7 4 13 15 14 15 15 14 12
22 25 25 23 20 16 9 4 2 3 7 5 0 3 6 3 5 10 19 14 2 4 2 3 4 2 3 4 4 1 3 6 7 4 3 3 11 3 10 11 15 14 14 14 15
25 29 26 22 19 15 5 3 2 0 4 8 6 4 4 6 2 7 12 9 2 6 4 2 3 7 9 6 4 4 3 7 18 12 7 10 8 13 8 9 10 15 15 15 17
32 32 27 21 18 12 2 3 4 0 7 13 8 8 7 3 4 2 16 6 5 5 3 5 7 10 4 4 5 5 5 14 15 13 11 8 13 11 5 11 18 17 16 18 15
37 33 25 20 14 4 5 7 2 11 1 6 6 6 6 11 8 7 11 6 5 6 5 7 10 5 4 6 5 8 5 8 9 6 2 2 6 5 6 5 9 13 17 15 18
39 31 24 17 2 1 5 2 14 10 5 5 3 6 5 6 4 9 15 7 2 10 8 6 8 10 5 8 8 7 8 10 8 2 3 2 5 6 6 11 11 13 13 16 17
39 30 24 11 3 3 1 14 6 2 2 2 3 5 3 8 2 2 10 4 8 7 7 9 2 4 5 14 5 12 10 6 8 2 2 2 3 7 3 7 9 13 16 17 19
38 33 21 5 7 5 10 4 5 5 2 2 4 4 5 1 2 3 4 4 3 5 3 8 3 5 9 9 8 12 2 5 4 3 3 2 4 8 4 6 3 8 15 18 17
39 28 12 7 3 2 7 3 5 3 4 2 4 5 4 4 2 2 5 6 7 4 5 5 11 5 7 5 0 4 5 2 4 4 7 3 1 10 10 10 11 10 15 17 17
41 12 4 9 7 3 2 5 1 2 4 4 3 3 5 5 5 3 5 5 6 3 3 4 7 6 5 9 9 7 8 6 5 3 5 2 6 7 7 10 8 11 18 16 16
31 6 3 1 12 0 5 3 5 5 3 7 6 4 2 2 4 3 8 6 8 9 8 5 6 4 5 6 9 4 3 4 7 1 3 3 8 13 8 6 4 7 9 13 15
16 8 3 4 14 5 5 4 4 4 5 4 3 2 3 3 2 5 7 5 6 13 7 3 6 5 5 4 2 8 7 3 3 2 4 5 6 6 9 9 2 5 10 11 12
6 3 4 13 6 5 3 6 5 5 5 3 4 3 2 1 3 3 4 4 3 1 12 5 5 13 3 4 7 2 2 6 5 5 5 1 6 7 7 7 5 6 9 10 13
6 3 3 9 3 1 1 4 5 7 5 4 4 8 7 6 4 4 5 3 8 2 6 8 5 8 12 6 3 5 9 6 5 6 2 4 7 6 7 9 5 5 5 7 10
2 2 7 3 2 3 5 6 3 4 4 5 5 5 1 6 3 4 1 2 10 6 3 2 3 3 10 4 2 4 5 5 6 4 5 5 6 3 5 4 4 2 2 3 8
2 3 4 4 1 2 5 5 7 6 2 4 3 4 5 6 7 3 7 4 7 6 6 4 4 7 10 12 3 4 5 5 6 4 4 6 7 8 6 4 5 5 6 4 3
3 0 3 3 3 3 2 4 6 7 6 9 5 6 2 6 5 4 2 6 6 5 7 4 1 3 5 4 2 4 4 6 5 6 5 5 7 7 6 6 8 7 2 8 8
2 3 4 1 3 5 5 6 7 6 4 5 3 3 4 3 4 3 0 0 4 6 5 4 1 3 4 5 3 4 7 6 6 5 5 4 4 1 7 5 5 6 6 1 4
6 3 3 3 5 3 2 5 5 7 4 5 5 3 3 4 5 7 7 6 7 5 2 1 2 3 5 5 7 2 5 8 3 2 5 6 7 2 6 7 7 8 6 6 6
Wind_Direction
353 347 342 339 334 331 329 328 326 324 323 322 322 326 328 326 319 287 243 230 223 220 205 258 293 231 195 235 155 129 66 273 244 176 242 244 262 69 40 134 56 194 150 161 153
350 346 341 336 332 328 325 324 323 323 320 318 320 325 330 328 319 260 248 236 226 241 201 206 140 64 313 226 170 137 195 223 196 205 207 184 197 157 133 118 54 90 101 130 150
349 345 340 336 333 331 328 326 323 319 317 316 319 325 330 330 320 247 307 220 227 215 204 268 245 190 219 193 202 188 223 221 231 220 205 210 221 164 136 232 191 152 148 151 155
348 343 338 334 330 328 326 323 321 317 315 314 316 326 327 335 172 282 349 188 206 214 217 243 121 159 262 295 275 218 239 210 265 203 162 236 152 206 182 225 155 159 162 161 166
348 342 336 332 328 325 322 320 318 313 311 311 315 329 342 349 253 284 331 192 186 193 195 188 129 187 301 318 327 116 302 265 229 191 208 179 221 219 208 150 153 159 163 173 177
348 342 338 333 328 322 318 317 315 308 305 300 302 325 56 290 300 307 230 160 181 195 186 169 199 337 272 300 3 296 316 5 239 182 180 178 195 182 127 147 156 165 178 182 186
348 342 339 333 326 320 315 314 311 304 298 290 280 122 106 237 110 319 191 222 206 205 186 190 191 95 338 309 241 263 292 344 257 298 200 153 296 216 159 160 167 178 184 188 195
348 345 339 332 327 321 316 311 307 298 283 266 181 139 246 257 316 207 197 273 222 216 219 241 237 225 183 294 337 340 46 32 264 205 223 115 269 223 162 162 181 182 188 192 200
351 346 340 334 327 321 320 314 317 317 201 133 128 164 267 292 248 210 208 223 208 209 230 259 253 190 18 35 358 4 302 290 320 217 168 175 264 208 176 176 184 190 194 196 194
354 349 340 335 329 323 329 320 118 103 100 120 300 335 274 239 190 197 218 203 134 102 43 133 57 51 40 73 241 297 338 314 270 329 292 210 266 150 186 192 190 190 192 197 197
352 349 341 336 331 322 344 132 55 335 220 195 196 233 269 306 209 178 177 169 2 57 149 29 71 228 236 208 216 313 286 277 282 268 196 222 238 263 199 207 197 200 196 196 204
353 346 341 335 328 315 291 192 209 349 294 231 230 279 273 355 345 257 152 138 144 200 94 15 256 245 219 234 231 251 280 277 280 272 178 205 233 246 193 213 201 192 199 201 200
352 347 340 337 323 305 222 237 341 308 300 292 179 204 213 155 206 239 145 146 143 174 178 172 228 84 178 271 264 266 223 264 239 329 242 130 304 261 260 240 216 206 197 198 191
350 348 341 342 334 257 258 14 330 160 43 274 250 266 155 166 242 205 172 138 169 184 159 218 263 251 225 250 161 276 221 239 269 329 268 117 276 264 227 234 209 204 190 195 202
347 344 334 326 269 218 353 335 131 103 12 145 206 168 159 149 180 211 170 74 178 179 122 238 235 183 230 244 146 241 275 246 265 80 349 311 39 266 303 269 238 210 197 194 205
345 339 323 298 226 246 329 3 124 40 267 314 125 169 117 239 330 93 126 77 162 171 235 235 249 175 220 250 196 244 195 44 55 81 341 269 139 286 224 222 230 218 203 194 202
342 329 294 204 223 47 345 63 39 136 318 18 229 166 158 178 278 105 146 186 185 137 261 294 257 220 189 253 175 101 62 336 352 358 234 245 29 235 255 249 225 193 206 199 202
341 338 286 213 197 339 52 53 186 255 277 328 334 71 141 144 240 173 157 217 266 98 95 216 319 175 183 179 202 197 158 158 203 211 259 51 246 262 232 259 224 190 199 200 195
343 340 294 136 203 112 73 85 218 221 332 325 323 100 255 276 180 155 191 212 210 169 193 182 266 269 212 171 143 196 171 195 107 22 33 251 292 304 318 307 180 186 168 197 203
340 331 295 146 143 109 76 239 245 237 336 348 324 125 152 270 177 159 200 219 219 184 149 254 306 243 282 128 95 170 159 89 8 184 254 288 275 240 313 290 259 188 184 205 204
359 37 5 144 130 50 158 235 277 268 4 289 266 255 217 187 200 214 228 289 204 212 180 173 154 263 13 233 175 100 208 60 121 143 170 242 274 220 259 330 316 249 235 202 200
357 56 65 151 54 41 175 218 277 282 293 276 230 213 184 182 206 231 223 24 350 204 172 214 171 244 229 277 304 187 194 142 135 243 215 157 272 267 293 249 230 217 232 215 197
43 268 47 335 81 333 308 291 272 303 301 341 344 26 7 195 199 215 49 351 9 49 17 188 235 261 295 318 7 211 169 132 117 102 205 139 258 303 323 229 259 199 219 204 185
49 21 337 44 61 92 357 310 318 303 74 0 14 34 14 30 5 42 1 331 347 9 345 137 168 184 223 232 163 183 165 148 139 127 176 219 283 290 285 217 185 212 179 148 141
30 354 173 333 341 1 299 336 337 349 12 20 34 43 334 30 16 33 4 325 319 2 12 73 10 311 274 237 185 204 220 175 153 182 155 238 189 283 274 290 289 289 237 142 151
62 31 356 308 309 340 4 13 359 327 349 345 14 295 75 134 167 274 352 194 262 329 15 359 271 355 285 333 223 211 235 221 199 199 211 178 261 313 334 42 10 3 360 160 192
17 28 103 314 348 39 355 320 350 335 299 61 312 319 307 297 230 229 209 212 215 192 264 336 67 39 274 342 320 313 216 219 192 51 198 173 208 216 41 43 9 1 40 56 42